This is the latest recevied weather packets stored in our database for station/object W2EH. If no packets are shown the sender has not sent any weather packets the latest 10 day(s).
| Time | Temp. | Humidity | Pressure | Rain* | Wind** | Luminosity | Snow |
|---|---|---|---|---|---|---|---|
| 1777404330 | 26.67° C | 82% | 1011.6 hPa | 0 mm | - | 62 W/m² | - |
| 1777404027 | 26.67° C | 82% | 1011.7 hPa | 0 mm | - | 63 W/m² | - |
| 1777403722 | 26.67° C | 82% | 1011.6 hPa | 0 mm | - | 83 W/m² | - |
| 1777403421 | 26.67° C | 82% | 1011.4 hPa | 0 mm | - | 81 W/m² | - |
| 1777403116 | 26.67° C | 82% | 1011.5 hPa | 0 mm | - | 95 W/m² | - |
| 1777402812 | 26.67° C | 82% | 1011.3 hPa | 0 mm | - | 75 W/m² | - |
| 1777402509 | 26.67° C | 82% | 1011.5 hPa | 0 mm | - | 49 W/m² | - |
| 1777402206 | 26.67° C | 83% | 1011.4 hPa | 0 mm | - | 54 W/m² | - |
| 1777401906 | 26.67° C | 82% | 1011.5 hPa | 0 mm | - | 60 W/m² | - |
| 1777401605 | 26.67° C | 82% | 1011.7 hPa | 0 mm | - | 38 W/m² | - |
| 1777401302 | 26.67° C | 81% | 1011.8 hPa | 0 mm | - | 42 W/m² | - |
| 1777400996 | 26.67° C | 81% | 1011.8 hPa | 0 mm | - | 44 W/m² | - |
| 1777400693 | 26.67° C | 82% | 1011.8 hPa | 0 mm | - | 60 W/m² | - |
| 1777400391 | 26.67° C | 81% | 1011.7 hPa | 0 mm | - | 50 W/m² | - |
| 1777400086 | 26.67° C | 81% | 1011.7 hPa | 0 mm | - | 79 W/m² | - |
| 1777399784 | 26.67° C | 82% | 1011.5 hPa | 0 mm | - | 96 W/m² | - |
| 1777399480 | 26.67° C | 82% | 1011.6 hPa | 0 mm | - | 66 W/m² | - |
| 1777399178 | 26.67° C | 82% | 1011.4 hPa | 0 mm | - | 60 W/m² | - |
| 1777398875 | 26.67° C | 81% | 1011.5 hPa | 0 mm | - | 66 W/m² | - |
| 1777398572 | 26.67° C | 82% | 1011.5 hPa | 0 mm | - | 159 W/m² | - |
| 1777398268 | 26.67° C | 81% | 1011.5 hPa | 0 mm | - | 52 W/m² | - |
| 1777397966 | 26.67° C | 81% | 1011.4 hPa | 0 mm | - | 58 W/m² | - |
| 1777397661 | 26.67° C | 81% | 1011.3 hPa | 0 mm | - | 85 W/m² | - |
| 1777397357 | 26.67° C | 80% | 1011.4 hPa | 0 mm | - | 80 W/m² | - |
| 1777397054 | 26.67° C | 81% | 1011.4 hPa | 0 mm | - | 119 W/m² | - |
* Rain latest hour (hover to see other rain measurements)
** Current wind speed in m/s (hover to see current wind gust speed)